Regional Weather Roundup
Issued by NWS

Home | Current Version | Previous Version | Graphics & Text | Print | Product List | Glossary On
Versions: 1 2 3 4 5 6 7 8 9 10 11 12 13 14 15 16 17 18 19 20 21 22 23 24 25 26 27 28 29 30 31 32 33 34 35 36 37 38 39 40 41 42 43 44 45 46 47 48 49 50
000
ASUS43 KBIS 150410
RWRND

NORTH DAKOTA REGIONAL WEATHER ROUNDUP
NATIONAL WEATHER SERVICE BISMARCK ND
1000 PM CST THU DEC 14 2017

NOTE: "FAIR" INDICATES FEW OR NO CLOUDS BELOW 12,000 FEET WITH NO
SIGNIFICANT WEATHER AND/OR OBSTRUCTIONS TO VISIBILITY.


NDZ001>003-009>011-017-150500-
NORTHWEST NORTH DAKOTA

CITY           SKY/WX    TMP DP  RH WIND       PRES   REMARKS
WILLISTON      CLOUDY    25  21  85 SE3       30.03F
MINOT          CLOUDY    32  22  66 NW17      29.99F
MINOT AFB      CLOUDY    31  22  70 NW14      29.98F
$$

NDZ018>021-031>035-040>046-150500-
SOUTHWEST NORTH DAKOTA

CITY           SKY/WX    TMP DP  RH WIND       PRES   REMARKS
BISMARCK       CLOUDY    35  25  66 W8        30.03F
DICKINSON      PTCLDY    21  17  84 W8        30.00F WCI  11
GARRISON         N/A     31  25  78 NW13      30.00F
HETTINGER ARPT CLEAR     18  15  88 CALM      30.05F
$$

NDZ004>008-012>016-024-026-027-054-150500-
NORTHEAST NORTH DAKOTA

CITY           SKY/WX    TMP DP  RH WIND       PRES   REMARKS
GRAND FORKS    CLOUDY    20  18  92 NW5       30.01F WCI  13
GRND FRKS AFB  CLOUDY    20  18  93 CALM      30.01F
DEVILS LAKE    CLOUDY    24  22  91 E10       29.98S WCI  14
$$

NDZ022-023-025-028>030-036>039-047>053-150500-
SOUTHEAST NORTH DAKOTA

CITY           SKY/WX    TMP DP  RH WIND       PRES   REMARKS
FARGO          CLOUDY    22  20  92 E6        30.00F WCI  14
JAMESTOWN      CLOUDY    32  27  81 NW16      29.96F
$$





USA.gov is the U.S. government's official web portal to all federal, state and local government web resources and services.